Location: Unspecified
(5.8950°N, 0.0000°E)
Time: 01:29:18
(UTC+00:00)

NANOSAT C BR1 - Visible Passes

Search period start: 04 April 2026 00:00
Search period end: 14 April 2026 00:00
Orbit: 476 x 483 km, 98.1° (Epoch: 29 March)

Date Brightness Start Highest point End Pass type
(mag) Time Alt. Az. Time Alt. Az. Time Alt. Az.
4 Apr ? 18:33:24 10° SE 18:36:20 25° ENE 18:39:16 10° NNE visible
5 Apr ? 19:40:23 10° SSW 19:43:08 21° W 19:45:51 10° NW visible
6 Apr ? 19:13:23 10° S 19:16:53 62° W 19:20:22 10° NNW visible
7 Apr ? 18:47:15 10° SSE 18:50:36 41° ENE 18:53:56 10° N visible
8 Apr ? 19:55:34 10° SW 19:57:17 13° W 19:59:01 10° WNW visible
9 Apr ? 19:27:39 10° S 19:30:55 35° WSW 19:34:11 10° NNW visible
10 Apr ? 19:01:01 10° SSE 19:04:31 72° E 19:08:02 10° N visible
11 Apr ? 18:35:14 10° SE 18:38:07 24° ENE 18:40:59 10° NNE visible
12 Apr ? 19:41:49 10° SSW 19:44:37 22° W 19:47:25 10° NW visible
13 Apr ? 19:14:36 10° S 19:18:06 66° WSW 19:21:36 10° NNW visible
